Flag for Malaysia Weather past 2 weeks in Kuala Lumpur, Malaysia

Now
91 °F

Broken clouds.


Feels Like: 92 °F
Forecast: 73 / 90 °F
Wind: 6 mph from East

Location: Sultan Abdul Aziz Shah-Subang

Current Time: Feb 1, 2015 at 3:44:58 PM

Latest Report: Feb 1, 2015 at 3:00 PM


Visibility: N/A

Pressure: 29.83 "Hg

Humidity: 38%

Dew point: 63 °F

Location of Kuala LumpurLocation

Historic Weather in Kuala Lumpur — Graph

°F

Kuala Lumpur temperature yesterday

Maximum temperature yesterday: 91 °F (at 2:00 PM)
Minimum temperature yesterday: 75 °F (at 12:00 AM)
Average temperature yesterday: 82 °F

Past Weeks' High & Low Weather Summary

 TemperatureHumidityPressure
High93 °F (Jan 18, 4:00 PM)100% (Jan 24, 3:00 AM)30.04 "Hg (Jan 24, 3:00 AM)
Low75 °F (Jan 18, 6:00 AM)44% (Jan 17, 2:00 PM)29.77 "Hg (Jan 27, 5:00 PM)
Average82 °F77%29.89 "Hg
* Reported Jan 17 2:00 PM — Feb 1 2:00 PM, Kuala Lumpur, Weather by CustomWeather, © 2014

Note: Actual official high and low records may vary slightly from our data, if they occured in-between our weather recording intervals... More about our weather records

Advertising

Kuala Lumpur weather history for previous 24 hours

 ConditionsComfort  
Time TempWeatherWind HumidityBarometerVisibility
2:00 PM
Feb 1
91 °FPartly sunny.6 mph44%29.86 "HgN/A
1:00 PM90 °FPartly sunny.3 mph49%29.89 "HgN/A
12:00 PM88 °FPartly sunny.3 mph49%29.92 "HgN/A
11:00 AM86 °FPartly sunny.5 mph55%29.95 "HgN/A
10:00 AM82 °FPartly sunny.5 mph62%29.95 "HgN/A
9:00 AM79 °FPartly sunny.3 mph74%29.92 "HgN/A
8:00 AM75 °FPartly cloudy.1 mph89%29.89 "HgN/A
7:00 AM75 °FPartly cloudy.No wind89%29.89 "Hg4 mi
6:00 AM75 °FPassing clouds.No wind94%29.86 "Hg4 mi
5:00 AM77 °FPassing clouds.1 mph89%29.86 "Hg4 mi
4:00 AM77 °FPartly cloudy.No wind89%29.86 "Hg4 mi
3:00 AM77 °FPartly cloudy.1 mph94%29.86 "Hg4 mi
2:00 AM79 °FPartly cloudy.No wind89%29.89 "Hg4 mi
1:00 AM79 °FPartly cloudy.1 mph89%29.92 "Hg4 mi
12:00 AM81 °FPartly cloudy.2 mph89%29.92 "Hg4 mi
11:00 PM
Jan 31
81 °FPartly cloudy.2 mph89%29.92 "HgN/A
10:00 PM82 °FPartly cloudy.3 mph84%29.92 "HgN/A
9:00 PM82 °FPartly cloudy.2 mph84%29.89 "HgN/A
8:00 PM82 °FBroken clouds.1 mph79%29.86 "HgN/A
7:00 PM84 °FBroken clouds.3 mph74%29.83 "HgN/A
6:00 PM84 °FPartly sunny.6 mph74%29.83 "HgN/A
5:00 PM86 °FBroken clouds.7 mph70%29.83 "HgN/A
4:00 PM88 °FBroken clouds.8 mph62%29.83 "HgN/A
3:00 PM84 °FBroken clouds.7 mph74%29.86 "HgN/A
Weather by CustomWeather, © 2014

See weather overviewHow to use our weather pages